TIMESTAMP,CO2_1_1_1,H2O_1_1_1,TAU_1_1_1,TAU_SSITC_TEST_1_1_1,H_1_1_1,H_SSITC_TEST_1_1_1,LE_1_1_1,LE_SSITC_TEST_1_1_1,FC_1_1_1,FC_SSITC_TEST_1_1_1,WD_0_0_1,WS_0_0_1,WS_MAX_0_0_1,U_SIGMA_0_0_1,V_SIGMA_0_0_1,W_SIGMA_0_0_1,USTAR_0_0_1,MO_LENGTH_0_0_1,ZL_0_0_1,FETCH_MAX_0_0_1,FETCH_70_0_0_1,FETCH_80_0_0_1,FETCH_90_0_0_1,PA_0_0_1,RH_0_0_1,TA_0_0_1,VPD_0_0_1,T_SONIC_0_0_1,T_SONIC_SIGMA_0_0_1
[yyyymmddHHMMSS],[mmolCO2 mol-1],[mmolH2O mol-1],[kg m-1 s-2],[#],[W m-2],[#],[W m-2],[#],[umolCO2 m-2 s-1],[#],[Decimal degrees],[m s-1],[m s-1],[m s-1],[m s-1],[m s-1],[m s-1],[m],[#],[m],[m],[m],[m],[kPa],[%],[deg C],[hPa],[deg C],[deg C]
20210328003000,433.12899496871631,6.5230420472576061,0.14632499805895280,0,-16.857947650523148,0,-0.30482577208967665,1,1.3149669615519139,0,131.54749224911313,1.9706659489989879,5.0358252830942991,0.68603649522186361,0.54737621404768211,0.41306579180211589,0.35140056957895710,213.30344894251820,8.9074977897428131E-002,110.02249379031498,201.15620852333953,240.73260558991313,301.36865582839590,93.183057805942170,98.827586206896555,0.13034482758621380,7.2128407885801382E-002,0.75409449268204298,0.18483721485555624
20210328010000,433.13334014755907,6.5068681661769086,0.16067758160728160,0,-9.8880123093429795,1,5.3772507344983914E-002,1,1.3163290629626698,0,137.34547959438643,1.8350528326716091,4.1495496823519398,0.71004303517434730,0.50764045548474890,0.41386086275934719,0.36822309984452534,418.38329254304608,4.5412903284241808E-002,114.04079510186661,208.50294489232775,249.52477264094156,312.37540565978713,93.169984164062512,98.920000000000002,8.1333333333304836E-002,6.6207037663920124E-002,0.21120450507271471,0.42498417708342251
20210328013000,433.16847332368332,6.4972485440567906,0.17492748006727143,1,-1.2704115840637369,2,-0.14239732818589521,1,1.7801723797629618,0,139.75047163619530,1.5459906937899073,4.0361212655446872,0.68154015326576989,0.50024742729826943,0.41214056453982667,0.38420135979995157,3698.6908754600672,5.1369526785978448E-003,118.37656362118237,216.43011256808157,259.01156772194423,324.25174735714546,93.159897044270835,99.000000000000000,4.8333333333346218E-002,6.1156097595367102E-002,-0.25042639838324021,0.12636296383376625
20210328020000,432.96824182220217,6.4882306871427211,5.4216329692998277E-002,0,3.4153800911229575,0,-2.2399795130818363E-002,2,1.1467511470609786,0,150.49629521746880,1.1715095013838144,3.0302111654364645,0.50376402310038004,0.43449441907273634,0.26873421456147717,0.21389677703054091,-237.37995721965041,-8.0040455911023198E-002,104.31816086203438,190.72686862676670,228.25134942429247,285.74360418877455,93.146493309244789,99.039999999999992,2.1666666666646961E-002,5.8596256708018477E-002,-7.4612826029408552E-002,0.17335150029989321
20210328023000,433.13982954581917,6.4730719248282087,8.5991494914272174E-002,1,-8.9393722470186372,1,-0.28897037539869191,1,0.71508059577410077,1,262.31445085826846,1.4047099655701514,4.4446431392232597,1.1936482453415140,0.71245735381699937,0.26233569259722350,0.26935836199096702,181.11646217325014,0.10490487596773625,127.88905049768287,233.82197243040827,279.82518203416043,350.30792264271753,93.147848605844032,99.099999999999994,-1.8666666666661058E-002,5.4773260688050412E-002,1.5221265006630347E-002,0.40650219803787629
20210328030000,433.77929832978521,6.4422989156456607,1.3354037974833100,1,-198.78397271147489,1,0.61890560813553674,2,-0.83662176401757549,2,298.54921894778124,2.2790645988386653,29.934829399162442,0.93899330376354750,2.1639339985848944,0.66941361762306562,1.0613969627241768,498.28179035841345,3.8131034221285359E-002,181.05125433842093,331.01943626656379,396.14572166738884,495.92743516615332,93.133418029421591,99.176666666666662,-9.6999999999979991E-002,4.9822909346903546E-002,1.7523241131115128,3.0079893648654688
20210328033000,434.70126650703423,6.4144890579140208,1.4024032988346500,1,72.636963776909084,2,1.4114698670333334,2,-0.58012679740555051,2,288.50468479555775,1.5207540735244580,11.150157376813155,1.1427910828718140,2.1136001296175015,0.70210485541362866,1.0877273458914392,-1467.3251670304492,-1.2948731765060581E-002,177.72534104244829,324.93860601588540,388.86852092304332,486.81724337828734,93.104418349609389,99.200000000000003,-0.16399999999998727,4.8175602415997221E-002,2.3019227201674539,0.85011279562939013
20210328040000,435.04577814079460,6.4181841153726893,0.40934986277675911,0,-107.56808827746823,0,-0.43769353124711285,2,0.64544432725303069,1,309.76496686198800,2.0133718202358213,13.279388655161418,1.0579009625856963,1.1523182772313652,0.59732148468352220,0.58775967846010857,156.28970177339292,0.12156911034066993,123.60846762136478,225.99570171061225,270.45913483999720,338.58274297121665,93.071497118055561,99.296666666666667,-0.17433333333332257,4.2322555323034979E-002,2.5400747305552613,0.52996466438248302
20210328043000,431.74483569692552,6.3116371879706454,0.44323625846034875,0,60.809325459797229,1,6.6152307328286257,1,7.7884230777660575,1,294.22500894810196,2.9800517908433073,18.721060934727653,1.3589784134178409,1.6969170169801218,0.84911892654543075,0.61141679216029965,-311.15198071280304,-6.1063406880694823E-002,96.283079571600467,176.03617737011399,210.67034404497986,263.73427169186726,93.049027571458865,99.213333333333338,-0.39600000000001501,4.6579095569010180E-002,1.4837746766480109,1.5456817877875797
20210328050000,427.86604409899246,6.1174921876975850,0.48678381385251429,0,-5.2628069254465668,1,3.3063785649596871,1,2.0574004296873967,0,304.54691127779836,3.5908083103472328,12.801290328948712,1.7048032598358283,1.4520401880843403,0.89098830908538951,0.64029479209066709,4128.5641085368943,4.6020842841491775E-003,96.130515432343273,175.75724146571528,210.33652900863865,263.31637487830130,93.037638127821182,98.996666666666670,-0.79566666666664787,5.7699659288670095E-002,-6.4217592875195351E-002,0.26241029834030777
20210328053000,426.30955996557094,5.9555163768264601,0.87335014152573287,0,-28.774990092989068,1,-7.2472461100442782,2,0.67234605647441037,2,310.54014839134845,3.5043637074359806,10.521562542083407,1.7307218062679397,1.7497548395023934,1.0398339881032197,0.85714311178935054,1811.3301714429892,1.0489528800187612E-002,107.28187725679786,196.14548742525793,234.73605219153481,293.86168255053843,93.034494261196301,98.579999999999998,-1.1050000000000182,7.9832445688314241E-002,-0.49458018893915323,0.27331022716334674
20210328060000,425.03346870545209,5.7615353852121993,0.88284559829279441,0,-47.564320147653468,1,-9.2518640202518778,1,-7.2654454969639140E-002,2,307.76984214983315,4.0285731696484763,12.710449517662681,1.9015202683237535,1.6584822837270707,1.0646836831821362,0.86130928374981253,1111.7475215579857,1.7090211249919132E-002,105.68314377209562,193.22249272532940,231.23797407898351,289.48250385067354,93.026343683159723,97.536666666666662,-1.4123333333333221,0.13539915025116217,-1.2227808617486176,0.30112225233108647
20210328063000,424.87214955883195,5.6533181776713572,0.68167925154337883,0,-23.068111524724713,0,1.6798703312740704,2,0.58341232028784473,0,314.21004379801525,3.9327688542091619,11.272801602499671,1.7718228413161332,1.6009976846668190,1.0060179120078139,0.75653328031099065,1553.3756476483127,1.2231426460666156E-002,99.685676215769789,182.25720923819540,218.11533031736408,273.05451105068272,93.027301133897566,97.193333333333328,-1.6220000000000141,0.15190941443431258,-1.4972631793551727,0.20491753476968416
20210328070000,424.90717389566976,5.5837308822511673,0.49324132057136955,0,-25.563383819628900,1,-0.32989887955198000,2,0.67783064132079640,1,311.55162296299147,4.1143503489338311,12.371250765629650,1.6415767466608238,1.6095927490968078,0.94791516852466984,0.64336137542996197,862.10397847602849,2.2039104881045751E-002,91.833959325679572,167.90176658644700,200.93553189443350,251.54744205421633,93.031568527734748,96.863333333333330,-1.7433333333333394,0.16825975785380023,-1.8860862164169703,0.24062717479751908
20210328073000,425.11676718515281,5.5732972818377329,0.82351354625811390,0,-48.508101178651103,0,-2.6418187468506051,0,0.36374965324090736,0,310.26171559339241,4.7602956223148976,12.233719038237036,1.9072599167994804,1.5326239771207404,1.0005149577755899,0.83137745312792855,980.27202221931657,1.9382375064611528E-002,107.97286494084274,197.40883329091059,236.24795452968473,295.75440486904409,93.017716428168413,96.613333333333330,-1.7356666666666456,0.18177315646579359,-2.0832954237196191,0.23321572106135502
20210328080000,425.13424938202269,5.5460389233672300,0.94341335925758107,0,-3.3912022637356740,2,13.242884258481924,1,1.1616171797926753,1,305.13320721528919,5.2896219584305859,14.884283882130040,2.0684034723775713,1.7547634023212415,1.1395783450887562,0.88974071167004354,17185.333453006260,1.1055939095948293E-003,102.72362099273988,187.81154119328858,224.76244707143513,281.37591245121132,93.004989526909725,96.819999999999993,-1.8329999999999700,0.16946018741205535,-2.0441052877637844,0.22715918146769962
20210328083000,424.67841147139751,5.2321806767551671,1.4312065327468622,0,-23.554807769589694,1,2.9166749914802743E-002,2,0.73188186467352745,0,319.36442044279335,5.6506068023207900,16.294676750352163,2.7234568705644748,1.9186467292275171,1.2520328748904728,1.0946581883464443,4607.9994251622511,4.1232644032569502E-003,112.45664893513381,205.60662046203379,246.05861202946096,308.03618388379431,93.023040038302867,94.943333333333342,-2.3536666666666406,0.25929228271945531,-2.6035064375099637,0.30059337156801902
20210328090000,424.51936335485362,5.1049825292393773,1.1015954468923381,0,-14.373469007378773,0,-3.4237487159920112,1,0.56888556582605576,0,318.95909296148534,5.5415605115670408,14.016772632690845,2.3047097352288235,1.7170188006991041,1.2091429719722060,0.95958614480765081,5087.6863374681589,3.7345069526151602E-003,104.07344964173437,190.27945846941759,227.71591373609422,285.07330224426050,93.048383560888610,95.133333333333340,-2.7086666666666588,0.24306277921381081,-3.2094230546297240,0.23753253463047044
20210328093000,424.47994338494448,4.9438966051686117,0.89135843801805026,0,-3.9406062754075850,2,-2.6348619268840134,1,0.48250038668687933,0,324.19954504917723,5.6319357442727940,13.882342657731520,2.2659396618731731,1.7395539222609619,1.2351480457986994,0.86253155143765670,13479.391546616334,1.4095591729264276E-003,93.950626344574673,171.77170897330842,205.56686453442956,257.34532094556778,93.075786398871529,94.290000000000006,-3.0160000000000196,0.27873598853970011,-3.6161392228868294,0.20903690803142114
20210328100000,424.48396898202344,4.8389973226734782,1.1989052201902268,0,-24.392485262921269,0,-1.6385078550275740,0,0.61853204530896388,0,324.21715714334192,5.0030900213008644,15.186263886869009,2.3379307100698647,1.6075359866253418,1.1792935787465866,0.99970877890473475,3391.3094739808457,5.6025556339737671E-003,109.71251164264181,200.58946229365765,240.05435510199075,300.51956670164782,93.106759833984370,93.933333333333337,-3.2483333333333348,0.29106063569381546,-3.9285678075154919,0.14580387224994437
20210328103000,424.55541950086388,4.8040608492159738,0.87106534821599968,0,-8.9342310592597673,0,0.78544646571391552,2,0.65077636529036675,0,319.02686556596495,5.5191694337637500,14.163156020463189,2.2074715206347588,1.8284061826102087,1.1681825245659414,0.85199106931430990,5732.0726091297083,3.3146823663290511E-003,97.273461287687269,177.84691101316832,212.83732974789049,266.44708064803342,93.125797166128848,93.483333333333334,-3.2783333333333076,0.31195094074814106,-3.8722821537717778,0.12338666745678457
20210328110000,424.63999455399505,4.6888287247971263,0.99348343900367264,0,-2.8174155399127971,2,-4.6229876876434197,0,0.53766884616755972,0,314.38549181947064,5.2265042020168773,13.485018982112383,2.1551153303319439,1.7125778687892144,1.2101598585815516,0.90935487451523478,22103.657487038156,8.5958624771225410E-004,99.624791297750122,182.14589218980683,217.98211224121383,272.88773782757460,93.143970081163189,93.010000000000005,-3.5326666666666711,0.32830925420661627,-4.1501526969627207,0.21049158221370587
20210328113000,424.69806545694155,4.5603480440849475,1.3585442802412546,0,-3.7151812938878850,2,-7.1673266413267882,2,0.67842059500264518,0,314.30801085412952,5.3481610574409295,13.234439574891638,2.3967012481685370,1.6270450997840193,1.2083091901210385,1.0626138146290471,26752.631063707369,7.1021051928516323E-004,112.98292217003419,206.56881578167116,247.21011407895324,309.47772780755463,93.178728520182304,92.390000000000001,-3.8093333333333135,0.35009905459811708,-4.2559792405587018,0.12011274976059050
20210328120000,424.76150646232179,4.4197004043557593,1.0951197604628009,0,2.4451348872421845,1,-2.4060111340855852,0,0.52732250229151267,0,312.33026076942991,5.0545636252502080,13.262944516194855,2.2390080454489008,1.5979644575015821,1.1239804502321686,0.95333096385466853,-29358.447431926415,-6.4717318734430350E-004,109.75968526298516,200.67571071689986,240.15757243645697,300.64878255618510,93.207592894992302,91.650000000000006,-4.1153333333333535,0.37541758266076503,-4.3967573619095219,9.5642777928081457E-002
20210328123000,424.81387976806587,4.3662294019173551,0.83957387455102872,0,-3.3842048578148312,0,3.4910994939884965,1,0.57378990231870863,0,311.15562007187305,4.6835703468929477,11.388122622698155,1.9746088081857838,1.5030372309906646,1.0486267894280747,0.83439463915170098,14225.417801034957,1.3356373967882808E-003,104.29304441743972,190.68094775556855,228.19639386982243,285.67480635584138,93.239654910590289,91.349999999999994,-4.2289999999999850,0.38559486555978140,-4.4711316473218972,8.8519873738465787E-002
20210328130000,424.81149397954078,4.3039283079724413,0.93824611571314531,0,8.0033364315313626,0,0.31020580793548741,1,0.42694813947109261,0,308.00244644745982,5.2725125493396110,13.513488232032053,2.0507973366729173,1.5767482498659584,1.1821657989383152,0.88178957116986556,-7101.4513042700255,-2.6755094396796759E-003,99.038522742823361,181.07400629063531,216.69933858338408,271.28185742743148,93.275983987196170,90.466666666666669,-4.2856666666666570,0.42316285327631764,-4.4183181529574540,7.7840127840765619E-002
20210328133000,424.81558638294507,4.2434287450000667,1.3112109147534570,0,25.156009667402589,0,6.4399911322502108,1,0.44553615425792964,0,307.72916472017334,5.3117802434732795,14.605276816890052,2.2863570327896205,1.6958441756555396,1.2183081574218673,1.0419512357203460,-3728.8432937533407,-5.0954139134324348E-003,110.49104812936288,202.01287529286088,241.75781691728434,302.65209875426291,93.322654370225692,89.923333333333332,-4.3870000000000005,0.44387938065423499,-4.5598156204223415,0.10853144245217770
20210328140000,424.86291662989493,4.2627919027301058,0.77284665510711326,0,20.993514284429640,0,4.0725960914444510,0,0.32233020641515492,0,304.48195174309797,4.6709869157431179,11.747186213517425,1.9065504217773959,1.4688425835000121,1.0036933672019182,0.79967562011468662,-2020.5400278042039,-9.4034266772967667E-003,104.40111600079312,190.87853707760223,228.43285782327973,285.97083116573646,93.363671707654404,90.796666666666667,-4.4490000000000123,0.40351880730109541,-4.5631617990408699,7.2703213419747573E-002
20210328143000,424.94680312605783,4.1513873102611010,1.3134603416126638,0,37.872913071655056,0,18.272897136917056,1,0.61205467705180594,0,307.53083027056840,5.3040170341850192,13.712175698715011,2.2714410794630968,1.8074748838642059,1.2189429406626358,1.0420623685587092,-2478.8959979741971,-7.6647023576330653E-003,110.45443761378972,201.94593959406811,241.67771198144538,302.55181688019002,93.394760857204858,89.286666666666662,-4.5733333333333235,0.46533986023701290,-4.5838071178860105,9.2567190494470861E-002
20210328150000,424.99796115543182,4.0573042982058434,1.1041916685656705,0,48.176775771403655,0,19.131636139754615,0,0.58503404861567188,0,310.42821616510207,5.1653875577044142,13.310344874559769,2.2477549788758600,1.7734046217390553,1.2410105221198084,0.95501328258510398,-1500.4036970472901,-1.2663258586599679E-002,101.54114547707921,185.64959881943813,222.17515421772299,278.13692881770260,93.430592869357639,88.173333333333332,-4.7056666666666729,0.50859052161577956,-4.5904014265271940,0.10594464172103817
20210328153000,424.94427701130428,4.0122845185493485,1.0173836746061382,0,53.751278832164026,0,-0.37758308242466621,2,0.11871243853641036,2,313.00044156824299,4.6293445410517577,13.678552241719604,2.4255202294464233,1.4942777421381566,1.0555107862248634,0.91664556197461045,-1189.4432289167041,-1.5973860322282398E-002,111.85255561274568,204.50214520302490,244.73683723134451,306.38147868405588,93.464769702521536,86.780000000000001,-4.6376666666666893,0.57143646552949345,-4.4550829404855676,0.13743690526488689
20210328160000,424.74674932544627,3.9347346977609061,1.0977391173872051,0,82.051404321412221,0,44.217473031654272,0,0.49749438661012191,0,328.88806410254961,3.9990146041735897,10.527194614697843,1.9796817311212782,1.4938829205598771,1.0202174768204622,0.95266934994246966,-874.89980630749574,-2.1716772438422721E-002,118.53714066250849,216.72369861304634,259.36291523484488,324.69159275088452,93.492865015625000,82.738666666666660,-4.2599999999999909,0.76767292588304425,-4.1814135326808923,0.18662930018000448
20210328163000,424.80543377016807,3.8057108800023332,1.0223110647684583,0,84.552656015091955,0,42.170471462013111,0,8.5509049463327103E-002,2,315.42742318771980,5.2814828121478055,14.564646475160847,2.2645711937386959,1.8309140627560700,1.2007854333011123,0.91954251069272230,-763.60650182442271,-2.4881925382516847E-002,101.14397565519704,184.92344571421972,221.30613441286746,277.04901914366491,93.514513064236127,78.944000000000003,-4.0760000000000218,0.94948483365494440,-4.1996705114576116,0.22716234698229229
20210328170000,424.63217281350131,3.7329286664817518,0.88950981794622197,0,40.364866026132411,0,41.167711609479547,0,0.97258643626487229,0,318.60826656246343,4.5656313569057891,12.351931544781865,2.1160795584102954,1.5489923096655809,0.96300218173797947,0.85770281785756697,-1298.2997615394675,-1.4634524755261932E-002,114.13597483669048,208.67696380360525,249.73302883269065,312.63611769927826,93.542051778645842,77.089333333333329,-4.0126666666666893,1.0380457594503418,-4.3108832117716247,0.11297390632553686
20210328173000,424.60791809698981,3.7126850933036910,1.0030315520578361,0,44.284519208115299,0,41.700781872208232,0,0.74539458148706617,0,308.75587840746141,4.6135843471463494,11.288125842797568,1.9650054408047977,1.5969423966851084,1.0636432936778302,0.91062931589390739,-1416.5133851091639,-1.3413215999039614E-002,110.58377129178277,202.18240280630033,241.96069805294030,302.90608186135279,93.566571147786462,76.823999999999998,-4.0356666666666570,1.0482548356113222,-4.5558250982496133,0.10670120123921770
20210328180000,424.39760116750580,3.6655376253185366,1.0192666509054809,0,73.012791841082390,0,77.961349419432253,0,1.2443157063003825,0,305.12218476527028,5.0311771710742486,12.105539548744479,2.3388369897844687,1.5770824873887370,1.0922816895910021,0.91793191101416183,-880.12777402900645,-2.1587774594389535E-002,108.95208643572509,199.19916249023319,238.39052132481612,298.43664425032364,93.587277191406244,75.624333333333340,-3.9933333333333394,1.1060274773141863,-4.5992924931844072,0.15232583066013347
20210328183000,424.09399605823154,3.5727075973852083,1.4773358808759338,0,113.81146109170567,0,56.847595135151721,0,1.1970352649757574,0,296.16725185029588,5.0077616632911806,12.593973188099234,2.3250491136711062,1.9851867526927651,1.2352195361623917,1.1055379362771991,-986.45785846534932,-1.9260832925553101E-002,114.58255399589405,209.49345293574703,250.71015778963027,313.85936720302652,93.598003932944195,72.358666666666664,-3.7453333333333489,1.2777590701967194,-4.3339746907258245,0.18739085015665530
20210328190000,424.08373983493317,3.5425676036407157,1.1287720720782246,0,121.66622582926344,0,63.218554738246432,0,0.93842456433848775,0,293.81974482525698,5.0694038623209527,12.820739424378889,1.9492701326836392,1.7939598282445073,1.2028760196105905,0.96615158631978693,-616.01516479647296,-3.0843396535988631E-002,105.07863517933905,192.11725821964330,229.91529065650874,287.82666116105980,93.623456933159716,71.970666666666659,-3.7830000000000155,1.2920417331745859,-4.3835234739515272,0.21962823852145144
20210328193000,423.84274065159184,3.3930856913750120,1.5112120063661800,0,145.58401744057988,0,102.36713109628329,1,1.4148697581574126,1,290.26954777325267,5.4587183017162024,13.730315307076832,2.3824759485773832,2.0572019473686978,1.3349136815947571,1.1174691179875824,-796.76148049131291,-2.3846534333316276E-002,108.61274163359177,198.57873196345986,237.64802444443603,297.50712626397279,93.659877603515625,69.427666666666667,-3.8729999999999905,1.3997836270264423,-4.4864096679687009,0.21951125768419638
20210328200000,423.57638221066691,3.3002682937808259,1.6038449916625330,0,183.29073305239336,0,86.585977102904039,0,0.90311793638750371,0,287.14622344362061,5.4008407511405956,14.696207201074447,2.3230093769237485,1.8314297883302968,1.2981477453636945,1.1513865803676477,-692.34555138293524,-2.7442943717986178E-002,113.75553355615119,207.98139580725626,248.90061159160601,311.59403009166351,93.681065104817705,66.769999999999996,-3.7193333333333385,1.5390988412040503,-4.4012959815131012,0.27087131188646124
20210328203000,423.48277498657012,3.2050856403729777,1.1357159481690742,0,138.10264478156395,0,63.739473845936047,0,0.79483881860177275,1,290.87328876281310,5.2434172577247242,12.036573488709644,2.1029430587653626,1.5961590869829325,1.1624901014383553,0.96907924457454386,-547.90273494685482,-3.4677687823264747E-002,108.25075215316245,197.91689974261172,236.85598031038859,296.51558099552147,93.691190722580288,64.157333333333327,-3.5756666666666774,1.6780654089012523,-4.2898285332620389,0.23567090899754448
20210328210000,423.10428608793012,3.2578580875969063,1.3588142872902815,0,183.01730872640454,0,84.974408196212522,0,0.79766318747649911,1,289.40961385976993,4.4998319948799868,12.742192186327200,2.0136282009840070,1.7934862817824082,1.1790157329553708,1.0609234773886302,-542.63365206828132,-3.5014415209193787E-002,115.07645310225065,210.39645802320766,251.79082424860326,315.21223337311369,93.725224995442716,62.545666666666669,-3.0113333333333117,1.8289843051571502,-3.7223654513888391,0.38417146318389822
20210328213000,423.05407206374036,3.2692510142477609,1.3597043658964441,0,241.63318838708005,0,97.191419410569253,1,0.36824371446057808,1,284.55942725817874,4.1419326135685939,11.772802881333778,1.9330161455573682,1.9318280378068617,1.2352838782830995,1.0624704640642264,-412.91353744682056,-4.6014475857302270E-002,110.99284249098872,202.93031542501620,242.85575843799501,304.02659125171220,93.759659603175706,59.565333333333335,-2.3020000000000209,2.0813305511994145,-3.0703259352976602,0.35047773590035841
20210328220000,423.36451861782393,3.2608412714423816,0.83421833731230877,0,123.56196183212471,0,76.033663383983082,0,1.1661339567602564,1,292.05593457881412,4.2395012480330685,11.012484674458726,1.7834912955304982,1.6659194058749376,1.0275665960792468,0.83197598269119066,-387.88338379781715,-4.8983794598181814E-002,105.75369465234647,193.35148223547714,231.39234157824976,289.67575364184108,93.816826629340284,59.396999999999998,-2.2903333333333080,2.0918015953900748,-2.9540880957708850,0.25563226277250384
20210328223000,423.45227425076450,3.1792158740570997,1.2019661083187796,0,122.49572275004591,0,43.973014411220397,0,0.69937610775730852,0,284.19840067494960,4.5786764760321592,11.960761066057545,2.0790458487156269,1.5700186540771701,1.1885882854159198,0.99909288178275812,-677.63604501117049,-2.8038650157234175E-002,108.97187791204431,199.23534762111237,238.43382568466708,298.49085617017477,93.832046609809026,56.698999999999998,-2.0023333333333539,2.2788210020305750,-2.6956142510307473,0.25803417443147464